Flag for U.S.A. Weather past 2 weeks in Pasadena, Texas, U.S.A.

Now
75 °F

Fog.


Feels Like: 76 °F
Forecast: 60 / 76 °F
Wind: 9 mph from South

Location: Houston / Ellington

Current Time: Mar 4, 2015 at 5:48:38 PM

Latest Report: Mar 4, 2015 at 4:50 PM


Visibility: 6 mi

Pressure: 29.83 "Hg

Humidity: 78%

Dew point: 68 °F

Location of PasadenaLocation

Historic Weather in Pasadena — Graph

°F

Pasadena temperature yesterday

Maximum temperature yesterday: 77 °F (at 2:50 PM)
Minimum temperature yesterday: 57 °F (at 1:50 AM)
Average temperature yesterday: 66 °F

Past Weeks' High & Low Weather Summary

 TemperatureHumidityPressure
High79 °F (Mar 4, 11:50 AM)100% (Feb 23, 6:50 PM)30.43 "Hg (Feb 23, 6:50 PM)
Low34 °F (Feb 24, 6:50 AM)36% (Feb 18, 5:50 PM)29.83 "Hg (Feb 25, 2:50 PM)
Average54 °F83%30.16 "Hg
* Reported Feb 17 4:50 PM — Mar 4 4:50 PM, Pasadena, Weather by CustomWeather, © 2015

Note: Actual official high and low records may vary slightly from our data, if they occured in-between our weather recording intervals... More about our weather records

Advertising

Pasadena weather history for previous 24 hours

 ConditionsComfort  
Time TempWeatherWind HumidityBarometerVisibility
4:50 PM
Wed, Mar 4
75 °FFog.9 mph78%29.83 "Hg6 mi
3:50 PM77 °FPartly sunny.14 mph74%29.83 "Hg10 mi
2:50 PM77 °FPartly sunny.16 mph74%29.84 "Hg10 mi
1:50 PM77 °FPartly sunny.15 mph74%29.86 "Hg10 mi
12:50 PM79 °FPartly sunny.17 mph70%29.88 "Hg10 mi
12:12 PM79 °FPartly sunny.14 mph74%29.90 "Hg10 mi
11:50 AM79 °FPartly sunny.14 mph74%29.91 "Hg10 mi
10:50 AM77 °FBroken clouds.17 mph69%29.92 "Hg10 mi
9:50 AM73 °FBroken clouds.14 mph89%29.93 "Hg7 mi
8:50 AM72 °FPartly sunny.14 mph94%29.92 "Hg7 mi
7:50 AM70 °FPartly sunny.10 mph100%29.90 "Hg7 mi
6:50 AM70 °FBroken clouds.8 mph100%29.90 "Hg7 mi
5:50 AM70 °FPassing clouds.8 mph100%29.89 "Hg7 mi
4:50 AM70 °FLow clouds.7 mph100%29.86 "Hg7 mi
3:50 AM70 °FLow clouds.13 mph100%29.86 "Hg7 mi
2:50 AM70 °FLow clouds.10 mph100%29.88 "Hg7 mi
1:50 AM70 °FLow clouds.12 mph100%29.89 "Hg7 mi
12:50 AM70 °FLow clouds.10 mph100%29.90 "Hg7 mi
11:50 PM
Tue, Mar 3
70 °FFog.10 mph94%29.90 "Hg5 mi
10:50 PM70 °FFog.10 mph94%29.91 "Hg5 mi
9:50 PM70 °FFog.7 mph94%29.92 "Hg5 mi
8:50 PM70 °FMostly cloudy.12 mph94%29.92 "Hg7 mi
7:50 PM70 °FMostly cloudy.12 mph94%29.91 "Hg7 mi
6:50 PM72 °FMostly cloudy.12 mph88%29.90 "Hg10 mi
5:50 PM72 °FMore clouds than sun.15 mph88%29.90 "Hg10 mi
Weather by CustomWeather, © 2015

See weather overviewHow to use our weather pages